Tucson, AZ

6:34 AM MST on May 24, 2017 (GMT -0700)
Tucson International

Weather History for KTUS - July, 2012

Change the Weather History Date:

Tuesday, July 17, 2012

  Actual Average Record
Temperature  
Mean Temperature 85 °F 87 °F  
Max Temperature 96 °F 100 °F 111 °F (2005)
Min Temperature 73 °F 75 °F 65 °F (1909)
Degree Days  
Heating Degree Days 0 0  
Month to date heating degree days 0 0  
Since 1 June heating degree days 0 0  
Since 1 July heating degree days 0 0  
Cooling Degree Days 20 22  
Month to date cooling degree days 369 386  
Year to date cooling degree days 1738 1482  
Since 1 June cooling degree days 1061 980  
Growing Degree Days 36 (Base 50)    
Moisture  
Dew Point 57 °F    
Average Humidity 47    
Maximum Humidity 74    
Minimum Humidity 19    
Precipitation  
Precipitation 0.00 in 0.09 in 1.84 in (1908)
Month to date precipitation 3.51 0.98  
Year to date precipitation 4.53 4.25  
Snow  
Snow 0.00 in - - ()
Month to date snowfall 0.0  
Snow Depth 0.00 in    
Sea Level Pressure  
Sea Level Pressure 29.84 in    
Wind  
Wind Speed 5 mph (WSW)    
Max Wind Speed 15 mph    
Max Gust Speed 29 mph    
Visibility 10 miles    
Events      
T = Trace of Precipitation, MM = Missing Value Source: NWS Daily Summary

Daily Weather History Graph

Daily Weather History Graph

Search for Another Location

Airport or City:

Trip Planner

Search our weather history database for the weather conditions in past years. The results will help you decide how hot, cold, wet, or windy it might be!

Date:

Astronomy

Jul. 17, 2012 Rise Set
Actual Time 5:29 AM MST 7:30 PM MST
Civil Twilight 5:02 AM MST 7:57 PM MST
Nautical Twilight 4:28 AM MST 8:30 PM MST
Astronomical Twilight 3:52 AM MST 9:06 PM MST
Moon 4:09 AM MST (7/17) 6:23 PM MST (7/17)
Length of Visible Light 14h 55m
Length of Day
14h 00m
Waning Crescent, 2% of the Moon is Illuminated
Jul 17
Waning Crescent
Jul 18
New
Jul 26
First Quarter
Aug 1
Full
Aug 9
Last Quarter

Hourly Weather History & Observations

Time (MST) Temp. Heat Index Dew Point Humidity Pressure Visibility Wind Dir Wind Speed Gust Speed Precip Events Conditions
12:53 AM 78.1 °F - 63.0 °F 60% 29.85 in 10.0 mi SSW 3.5 mph - N/A   Clear
1:53 AM 75.9 °F - 66.0 °F 71% 29.85 in 10.0 mi East 4.6 mph - N/A   Scattered Clouds
2:53 AM 75.9 °F - 64.9 °F 69% 29.84 in 10.0 mi Calm Calm - N/A   Clear
3:53 AM 75.9 °F - 64.0 °F 67% 29.85 in 10.0 mi East 4.6 mph - N/A   Clear
4:53 AM 75.0 °F - 64.9 °F 71% 29.85 in 10.0 mi ESE 4.6 mph - N/A   Clear
5:53 AM 77.0 °F - 63.0 °F 62% 29.86 in 10.0 mi SSE 5.8 mph - N/A   Scattered Clouds
6:53 AM 77.0 °F - 64.9 °F 66% 29.88 in 10.0 mi ESE 4.6 mph - N/A   Overcast
7:53 AM 78.1 °F - 64.9 °F 64% 29.91 in 10.0 mi South 9.2 mph - N/A   Mostly Cloudy
8:53 AM 81.0 °F 82.5 °F 64.0 °F 56% 29.91 in 10.0 mi SSE 5.8 mph - N/A   Partly Cloudy
9:53 AM 84.9 °F 85.9 °F 63.0 °F 48% 29.91 in 10.0 mi Calm Calm - N/A   Partly Cloudy
10:53 AM 87.1 °F 87.5 °F 62.1 °F 43% 29.90 in 10.0 mi Calm Calm - N/A   Clear
11:53 AM 89.1 °F 90.0 °F 63.0 °F 42% 29.88 in 10.0 mi Variable 4.6 mph - N/A   Clear
12:53 PM 90.0 °F 89.7 °F 60.1 °F 37% 29.86 in 10.0 mi Variable 3.5 mph - N/A   Clear
1:53 PM 93.0 °F 91.4 °F 55.9 °F 29% 29.83 in 10.0 mi Variable 4.6 mph - N/A   Clear
2:53 PM 93.9 °F - 50.0 °F 22% 29.81 in 10.0 mi WNW 3.5 mph - N/A   Clear
3:53 PM 93.9 °F - 48.0 °F 21% 29.79 in 10.0 mi WNW 5.8 mph - N/A   Clear
4:53 PM 95.0 °F - 46.9 °F 19% 29.78 in 10.0 mi Variable 5.8 mph - N/A   Clear
5:53 PM 93.9 °F - 46.0 °F 19% 29.77 in 10.0 mi WNW 11.5 mph 16.1 mph N/A   Clear
6:53 PM 91.9 °F - 48.0 °F 22% 29.78 in 10.0 mi WNW 8.1 mph - N/A   Clear
7:53 PM 90.0 °F - 48.0 °F 24% 29.80 in 10.0 mi WNW 5.8 mph - N/A   Clear
8:53 PM 87.1 °F - 50.0 °F 28% 29.81 in 10.0 mi WNW 5.8 mph - N/A   Clear
9:53 PM 82.9 °F 81.8 °F 53.1 °F 36% 29.83 in 10.0 mi West 4.6 mph - N/A   Clear
10:53 PM 80.1 °F 80.1 °F 55.0 °F 42% 29.83 in 10.0 mi WSW 4.6 mph - N/A   Clear
11:53 PM 80.1 °F - 51.1 °F 36% 29.84 in 10.0 mi West 5.8 mph - N/A   Clear